SL-16 DEB, 18527

Orbit data source: Space-Track

SL-16 DEB, 18527 is space debris in LEO originally from a launch on Wed, 18 Mar 1987 UTC launched from the Tyuratam Missile And Space Complex (TTMTR). Debris objects in space refer to the collection of defunct objects orbiting the Earth. Examples of debris include non-operational satellites, rocket bodies, and fragments generated from explosions, collisions, or faulty payload assembly.

Loading next visibility...
Identifier
18527, 1987-027E
Orbit
LEO
Country
Flag of CISCIS
Related business
Manufacturer
Yuzhnoe
Mission
Spacecraft
Bus & Motor
SEP MOTOR COVER, Unknown motor
Mass
~0 kg wet, ~1 kg dry
Launch date (UTC)
1987-03-18 (39 years ago)
Launch vehicle
Unknown
Launch site
Tyuratam Missile And Space Complex (TTMTR)
Object type
Payload
Rocket body
Debris
Shape & HBR
Unknown
Radar Cross Section
Small (<0.1 m²)

Expand to show TLE details & history
Last TLE update: 7 hours ago

TLE from 7 hours ago
0 SL-16 DEB
1 18527U 87027E   25260.94473398  .00000080  00000-0  11164-3 0  9993
2 18527  70.9951  99.4619 0196424 296.6433  61.4668 13.75719606931754
Epoch: 2025-09-17T22:40Z
TLE epoch observation values (Epoch: 2025-09-17T22:40:25.015Z)
Latitude
-0.00004°
Longitude
122.24425°
Altitude
914.648 km
Speed
7.428 km/s
True Right ascension
06h 37m 50s
True Declination
0° 00' 00"
Sunlit
Object was in daylight at epoch
Visualization orbit readout
Latitude
Unknown
Longitude
Unknown
Altitude
Unknown
Speed
Unknown
Apparent Right ascension
Unknown
Apparent Declination
Unknown
Sunlit
N/A
Visualization observer readout
Local Sidereal Time
22:01:01
Azimuth
Unknown
Elevation
Unknown
Doppler factor
Unknown
Orbital elements
Apogee altitude
1,121.545 km
Perigee altitude
832.597 km
Semi-major axis
7,355.208 km
Eccentricity
0.01964
Inclination
70.9951°
RAAN
99.4619°
Arg. of periapsis
296.6433°
True anomaly
63.46731°
Mean anomaly
61.4668°
Eccentric anomaly
62.46475°
Mean motion
3.44073 °/min
Orbital period
104.63 mins
BSTAR
0.00011164
Loading maneuver chart data...
Computing Atmospheric mass density...
Loading historical data...
Loading historical data...
Loading historical data...
Loading historical data...
Loading historical data...
Loading historical data...
Loading historical data...

Documentation

Showing up to 5 results
|